Regional Weather Roundup
Issued by NWS

Home | Current Version | Previous Version | Graphics & Text | Print | Product List | Glossary On
Versions: 1 2 3 4 5 6 7 8 9 10 11 12 13 14 15 16 17 18 19 20 21 22 23 24 25 26 27 28 29 30 31 32 33 34 35 36 37 38 39 40 41 42 43 44 45 46 47 48 49 50
000
ASUS43 KOAX 222102
RWRNE

WEATHER ROUNDUP FOR NEBRASKA
NATIONAL WEATHER SERVICE OMAHA NE
400 PM CDT FRI JUL 22 2016

NOTES: SATELLITE DATA IS BEING USED TO AUGMENT CLOUD COVER ABOVE
       12000 FEET.
       "FAIR" INDICATES FEW OR NO CLOUDS BELOW 12,000 FEET WITH NO
       SIGNIFICANT WEATHER AND/OR OBSTRUCTIONS TO VISIBILITY.

  * THESE STATIONS DO NOT REPORT WEATHER SUCH AS RAIN...SNOW OR FOG.

NEZ001>004-019>022-054>056-222200-
NEBRASKA PANHANDLE

CITY           SKY/WX    TMP DP  RH WIND       PRES   REMARKS
SCOTTSBLUFF    TSTM      80  61  52 E16       30.04F
ALLIANCE       CLOUDY    90  59  35 SE13      30.04F THUNDER
CHADRON        CLOUDY    87  55  33 SE15      30.01R
KIMBALL        MOSUNNY   96  53  23 S14G21    30.12F HX  93
SIDNEY         SUNNY     98  57  25 S18G24    30.09F HX  97
$$

NEZ057>060-069>072-079>082-222200-
SOUTHWEST NEBRASKA

CITY           SKY/WX    TMP DP  RH WIND       PRES   REMARKS
NORTH PLATTE   SUNNY     95  75  52 SE12      29.98F HX 107
IMPERIAL       CLOUDY    90  65  43 E14       30.02F THUNDER HX  92
LEXINGTON      MOSUNNY   95  74  50 SE7       29.97F HX 105
MCCOOK         SUNNY    100  63  29 E15       29.97F HX 102
OGALLALA       SUNNY     98  56  24 SE7       30.02F HX  97
$$

NEZ005>010-023>029-035>040-094-222200-
NORTH CENTRAL NEBRASKA

CITY           SKY/WX    TMP DP  RH WIND       PRES   REMARKS
VALENTINE      CLOUDY    96  60  30 SE13      29.99F HX  96
AINSWORTH      SUNNY     93  74  52 E7        29.99F HX 103
BROKEN BOW     MOSUNNY   93  77  59 E7        29.99F HX 107
O`NEILL        SUNNY     96  73  47 NE12      29.96F HX 105
ORD            SUNNY     97  75  49 E5        29.94F HX 109
THEDFORD       SUNNY     99  65  32 E9G16     30.01F HX 102
$$

NEZ041-046>049-061>064-073>077-083>087-222200-
SOUTH CENTRAL NEBRASKA

CITY           SKY/WX    TMP DP  RH WIND       PRES   REMARKS
GRAND ISLAND   CLOUDY    95  77  55 S10       29.94F HX 109
AURORA         PTSUNNY   89  68  50 S10       29.96S HX  92
HASTINGS       CLOUDY    86  70  58 S7        29.97F HX  90
HEBRON         CLOUDY    81  73  76 S6        29.94F
HOLDREGE       MOSUNNY   91  67  46 SE9       29.98F HX  94
KEARNEY *      CLOUDY    99  72  41 SE6       29.97F HX 107
YORK           CLOUDY    86  75  70 S9        29.96F HX  95
$$

NEZ011>018-030>034-042>045-222200-
NORTHEAST NEBRASKA

CITY           SKY/WX    TMP DP  RH WIND       PRES   REMARKS
NORFOLK        MOSUNNY   91  76  61 SE8       29.93F HX 103
ALBION         PTSUNNY   90  77  66 SE7       29.96S HX 103
BLAIR          SUNNY     92  79  67 S8        29.94S HX 109
FREMONT        SUNNY     93  76  56 S12G17    29.94S HX 105
TEKAMAH        MOSUNNY   94  77  57 S10       29.92F HX 108
WAYNE          MOSUNNY   91  80  71 SE9       29.95S HX 108
$$

NEZ050>053-065>068-078-088>093-222200-
SOUTHEAST NEBRASKA

CITY           SKY/WX    TMP DP  RH WIND       PRES   REMARKS
LINCOLN        MOSUNNY   93  75  55 S8        29.93F HX 104
OMAHA EPPLEY   MOSUNNY   94  79  61 S20       29.92F HX 111
BEATRICE       CLOUDY    89  74  59 SW12      29.95F HX  98
FALLS CITY     SUNNY     96  76  52 S13G21    29.94S HX 109
NEBRASKA CITY  SUNNY     92  80  67 S13       29.94F HX 110
PLATTSMOUTH    SUNNY     91  80  68 S15       29.94S HX 109
$$

NEZ044-045-051>053-067-222200-
OMAHA AREA

CITY           SKY/WX    TMP DP  RH WIND       PRES   REMARKS
OMAHA EPPLEY   MOSUNNY   94  79  61 S20       29.92F HX 111
BLAIR          SUNNY     92  79  67 S8        29.94S HX 109
FREMONT        SUNNY     93  76  56 S12G17    29.94S HX 105
MILLARD        MOSUNNY   93  82  68 S10G16    29.92F HX 115
OFFUTT AFB     SUNNY     93  81  67 SE13      29.93F HX 112
PLATTSMOUTH    SUNNY     91  80  68 S15       29.94S HX 109
WAHOO          FAIR      93  76  57 S13       29.93S HX 105
$$




USA.gov is the U.S. government's official web portal to all federal, state and local government web resources and services.